Probability
3 3 0 3 3 3 3 3 3 3 0 0 0 0 0 0 0 0 0 0 0 0 0 0 0 0 0 0 0 0 0 0 0 0 0 0 0 0 0 0 0 0 0
3 3 3 3 3 3 3 3 3 3 0 0 0 0 0 0 0 0 0 0 0 0 0 0 0 0 0 0 0 0 0 0 0 0 0 0 0 0 0 0 0 0 0
3 3 3 3 3 3 3 3 3 0 0 0 0 0 0 0 0 0 0 0 0 0 0 0 0 0 0 0 0 0 0 0 0 0 0 0 0 0 0 0 0 0 0
6 3 3 3 3 3 3 3 3 3 0 0 0 0 0 0 0 0 0 0 0 0 0 0 0 0 0 0 0 0 0 0 0 0 0 0 0 0 0 0 0 3 0
6 3 3 3 3 3 3 3 3 3 0 0 0 0 0 0 0 0 0 0 0 0 0 0 0 0 0 0 0 0 0 0 0 0 0 0 0 0 3 3 3 3 3
6 6 3 3 3 3 3 3 3 3 0 0 0 0 0 0 0 0 0 0 0 0 0 0 0 0 0 0 0 0 0 0 0 0 3 3 0 0 3 0 3 3 3
10 6 6 3 3 3 3 3 3 3 0 0 0 0 0 0 0 0 0 0 0 0 0 0 0 0 0 0 0 0 0 0 0 0 0 0 0 0 0 0 0 0 0
10 10 6 3 3 3 3 3 3 3 0 0 0 0 0 0 0 0 0 0 0 0 0 0 0 0 0 0 0 0 0 0 0 0 0 0 0 0 0 0 0 0 0
10 10 6 3 3 3 3 3 0 0 0 0 0 0 0 0 0 0 0 0 0 0 0 0 0 0 0 0 0 0 0 0 0 0 0 0 0 0 0 0 0 3 0
10 6 6 0 0 0 0 0 0 0 0 0 0 0 0 0 0 0 0 0 0 0 0 0 0 0 0 0 0 0 0 0 0 0 0 0 0 0 0 0 0 3 3
3 3 6 0 0 0 0 0 0 0 0 0 0 0 0 0 0 0 0 0 0 0 0 0 0 0 0 0 0 0 0 0 0 0 0 0 0 3 0 0 3 3 3
6 6 6 3 0 0 0 0 0 3 0 3 3 0 0 0 0 0 0 0 0 0 0 0 0 0 0 0 0 0 0 0 0 0 0 0 3 3 0 0 0 3 6
6 10 6 3 0 0 0 0 0 3 0 0 0 0 0 0 0 0 0 0 0 0 0 0 0 0 0 0 0 0 0 0 0 0 3 3 0 10 10 6 3 10 3
6 6 6 6 3 0 3 0 0 0 0 0 0 0 0 0 0 0 0 0 0 0 0 0 0 0 0 0 0 0 0 0 0 0 0 0 3 3 10 10 10 6 0
6 6 6 3 0 3 3 10 0 3 0 0 0 0 0 0 0 0 0 0 0 0 0 0 0 0 0 0 0 0 0 0 0 0 0 0 3 3 6 3 10 6 3
6 6 0 0 3 0 0 0 0 0 0 0 0 0 0 0 0 0 0 0 0 0 0 0 0 0 0 0 0 0 0 0 0 0 0 3 6 3 3 3 3 0 6
6 3 3 0 0 0 0 0 0 0 0 0 0 0 0 0 0 0 0 0 0 0 0 0 0 0 0 0 0 0 0 0 0 0 0 3 3 6 6 6 6 6 10
0 0 0 0 0 0 0 0 0 0 0 0 0 0 0 0 0 0 0 0 0 0 0 0 0 0 0 0 0 0 0 0 0 3 0 0 0 0 3 0 0 0 0
0 0 0 0 0 0 0 0 0 0 0 0 0 0 0 0 0 0 0 0 0 0 0 0 0 0 0 0 0 0 0 0 0 3 0 0 0 0 0 0 0 0 0
3 0 0 0 0 0 0 0 0 0 0 0 0 0 0 0 0 0 0 0 0 0 0 0 0 0 0 3 3 3 0 0 0 0 0 0 3 3 0 0 0 0 0
0 0 0 0 0 0 0 0 0 0 0 0 0 0 0 0 0 0 0 0 0 0 0 0 0 3 0 6 3 0 0 0 0 0 0 0 0 3 0 0 0 0 0
0 0 3 0 0 3 0 0 0 0 0 0 0 0 0 0 0 0 0 0 0 0 0 3 3 3 0 0 0 0 0 0 0 0 0 0 0 0 0 0 0 0 0
0 0 0 0 3 0 0 0 0 0 0 0 0 0 0 0 0 0 0 0 0 0 0 0 3 3 3 6 3 0 0 0 0 0 0 0 0 0 0 0 0 0 0
0 0 0 0 0 0 0 0 0 0 0 0 0 0 0 0 0 0 0 0 0 0 0 0 0 0 0 3 3 0 0 0 0 0 0 0 0 0 0 0 0 0 0
0 0 0 0 0 0 0 0 0 0 0 0 0 0 0 0 0 0 0 0 0 0 0 0 0 0 0 0 0 0 0 0 0 0 0 0 0 0 0 0 0 0 0
0 0 0 0 0 0 0 0 0 0 0 0 0 0 0 0 0 0 0 0 0 3 3 0 0 0 0 0 0 0 0 0 0 0 0 0 0 0 0 0 0 0 0
Height
5848 5848 5847 5846 5845 5844 5843 5841 5840 5838 5837 5835 5833 5831 5829 5827 5825 5823 5820 5818 5816 5814 5812 5810 5809 5807 5806 5805 5804 5803 5803 5802 5802 5802 5801 5802 5803 5803 5805 5806 5808 5810 5812
5847 5846 5845 5845 5844 5843 5841 5840 5839 5837 5835 5833 5831 5829 5827 5824 5822 5819 5817 5815 5812 5810 5808 5806 5804 5802 5800 5799 5797 5796 5795 5795 5794 5794 5793 5793 5793 5794 5795 5796 5797 5799 5801
5845 5845 5844 5843 5842 5841 5840 5838 5837 5835 5833 5831 5829 5826 5824 5821 5819 5816 5813 5811 5808 5806 5803 5801 5798 5796 5794 5792 5790 5789 5788 5787 5786 5785 5784 5784 5783 5784 5784 5785 5787 5788 5790
5844 5843 5842 5841 5840 5839 5838 5836 5834 5832 5830 5828 5826 5824 5821 5818 5815 5812 5810 5807 5804 5801 5798 5795 5793 5790 5788 5786 5784 5782 5780 5779 5777 5776 5775 5774 5773 5773 5774 5775 5776 5777 5779
5841 5841 5840 5839 5838 5837 5835 5834 5832 5830 5828 5825 5823 5820 5817 5815 5812 5809 5806 5803 5799 5796 5793 5790 5787 5785 5782 5779 5777 5775 5772 5770 5768 5767 5765 5764 5764 5763 5763 5764 5764 5765 5767
5839 5838 5837 5836 5835 5834 5832 5831 5829 5826 5824 5822 5819 5816 5814 5811 5808 5805 5801 5798 5795 5792 5788 5785 5782 5779 5776 5773 5770 5767 5765 5762 5760 5758 5756 5755 5754 5753 5753 5753 5753 5754 5755
5836 5835 5834 5833 5832 5830 5829 5827 5825 5823 5820 5818 5815 5812 5810 5807 5804 5800 5797 5793 5790 5786 5783 5779 5776 5773 5769 5766 5763 5760 5757 5754 5751 5749 5747 5745 5744 5743 5742 5742 5741 5741 5742
5832 5831 5830 5829 5828 5827 5825 5823 5821 5819 5816 5813 5811 5808 5805 5802 5799 5796 5792 5788 5785 5781 5778 5774 5770 5766 5763 5759 5755 5752 5749 5746 5743 5740 5738 5735 5734 5732 5731 5730 5729 5729 5730
5828 5827 5826 5825 5824 5822 5821 5818 5816 5814 5811 5809 5806 5803 5800 5797 5794 5790 5787 5783 5779 5775 5772 5768 5764 5760 5756 5752 5748 5745 5741 5738 5734 5732 5729 5726 5724 5722 5720 5719 5718 5718 5718
5823 5822 5821 5820 5819 5817 5815 5813 5811 5809 5806 5803 5801 5798 5794 5791 5788 5785 5781 5777 5773 5770 5766 5761 5757 5753 5749 5745 5741 5737 5733 5729 5726 5723 5720 5717 5714 5712 5710 5708 5707 5706 5706
5818 5817 5816 5815 5814 5812 5810 5808 5806 5803 5801 5798 5795 5792 5789 5785 5782 5778 5774 5771 5767 5763 5758 5754 5751 5746 5742 5738 5733 5729 5725 5721 5717 5714 5711 5708 5705 5702 5700 5698 5697 5695 5695
5813 5812 5811 5809 5808 5806 5804 5802 5800 5797 5795 5792 5789 5786 5782 5779 5775 5771 5768 5764 5759 5755 5751 5747 5743 5739 5735 5730 5726 5722 5717 5713 5709 5706 5702 5699 5695 5693 5690 5688 5686 5685 5683
5807 5806 5805 5803 5802 5800 5798 5796 5793 5791 5788 5785 5782 5779 5775 5772 5768 5764 5760 5756 5752 5748 5744 5740 5736 5731 5727 5722 5718 5714 5709 5705 5701 5698 5694 5690 5687 5684 5681 5679 5677 5675 5673
5800 5799 5798 5796 5795 5793 5791 5789 5786 5783 5781 5778 5774 5771 5768 5764 5760 5756 5753 5749 5745 5740 5736 5732 5728 5723 5719 5714 5710 5705 5701 5697 5693 5689 5686 5682 5678 5675 5672 5670 5667 5666 5664
5793 5792 5790 5789 5787 5785 5783 5781 5779 5776 5773 5770 5767 5763 5760 5756 5752 5748 5744 5740 5736 5732 5727 5723 5719 5715 5710 5706 5701 5697 5693 5689 5685 5681 5677 5674 5670 5667 5664 5661 5659 5657 5655
5785 5784 5783 5781 5780 5778 5775 5773 5770 5768 5765 5762 5758 5755 5751 5748 5743 5739 5735 5731 5727 5722 5718 5714 5710 5705 5701 5697 5692 5688 5684 5680 5676 5673 5669 5665 5662 5659 5656 5653 5651 5649 5647
5778 5776 5775 5773 5771 5769 5767 5764 5762 5759 5756 5753 5749 5745 5742 5738 5734 5730 5726 5721 5717 5712 5708 5704 5700 5696 5691 5687 5683 5679 5675 5671 5668 5664 5661 5657 5654 5651 5648 5645 5643 5641 5639
5770 5768 5766 5764 5762 5760 5758 5755 5752 5749 5746 5743 5739 5736 5732 5728 5724 5719 5715 5711 5707 5702 5698 5694 5690 5686 5682 5678 5674 5670 5666 5662 5659 5655 5652 5649 5646 5643 5640 5638 5635 5633 5632
5761 5759 5757 5755 5753 5751 5748 5745 5742 5739 5736 5732 5728 5725 5721 5717 5713 5708 5704 5699 5695 5691 5687 5683 5679 5676 5672 5668 5664 5660 5657 5653 5650 5647 5644 5641 5638 5635 5633 5630 5628 5626 5624
5752 5750 5748 5746 5743 5741 5738 5735 5732 5728 5725 5721 5717 5713 5709 5705 5701 5697 5692 5688 5684 5680 5676 5672 5668 5664 5661 5658 5654 5651 5647 5644 5641 5638 5635 5632 5630 5627 5625 5623 5621 5619 5617
5742 5740 5738 5736 5733 5730 5727 5724 5720 5717 5713 5709 5705 5701 5697 5692 5688 5684 5680 5676 5671 5667 5663 5659 5656 5652 5650 5647 5644 5641 5637 5634 5632 5629 5626 5624 5622 5619 5617 5615 5613 5611 5610
5731 5729 5727 5725 5722 5719 5715 5712 5708 5705 5701 5697 5693 5688 5684 5680 5676 5671 5667 5663 5659 5655 5651 5647 5644 5641 5638 5635 5633 5630 5627 5624 5622 5620 5617 5615 5613 5611 5609 5607 5606 5604 5602
5720 5718 5716 5713 5710 5707 5703 5699 5696 5692 5688 5684 5680 5676 5671 5667 5662 5658 5654 5650 5646 5642 5638 5635 5632 5629 5626 5624 5622 5619 5617 5615 5612 5610 5609 5607 5605 5603 5601 5599 5598 5596 5595
5709 5706 5703 5700 5697 5694 5690 5687 5683 5679 5675 5671 5666 5662 5658 5653 5649 5645 5640 5636 5633 5629 5626 5623 5620 5617 5615 5613 5611 5609 5607 5605 5603 5601 5599 5598 5596 5595 5593 5592 5590 5589 5588
5696 5693 5690 5687 5684 5681 5677 5673 5669 5665 5661 5657 5653 5648 5644 5640 5636 5631 5627 5623 5620 5617 5614 5611 5609 5607 5604 5602 5600 5599 5597 5595 5593 5591 5590 5589 5587 5586 5585 5584 5583 5582 5581
5682 5680 5677 5674 5670 5667 5663 5659 5655 5651 5647 5643 5639 5634 5630 5626 5622 5618 5614 5610 5607 5604 5602 5599 5597 5595 5593 5592 5590 5589 5587 5586 5584 5583 5581 5580 5579 5578 5577 5576 5575 5575 5574
Wind_Speed
2 2 2 2 3 4 4 5 6 7 8 9 10 11 11 12 13 13 13 13 14 15 16 16 17 18 19 21 22 24 25 27 28 30 31 32 34 35 36 37 38 40 41
4 3 3 3 4 5 5 6 7 8 9 10 11 12 12 13 14 15 15 15 15 16 16 17 18 19 20 22 23 24 25 26 28 30 32 33 34 35 36 37 38 40 42
5 5 4 5 5 6 7 8 9 10 11 11 12 13 13 14 15 16 16 16 17 18 18 19 19 20 21 22 23 24 25 27 28 30 32 34 35 36 37 38 38 39 41
6 6 6 6 7 7 8 9 10 11 12 13 13 14 14 15 16 16 17 17 18 19 19 20 20 21 22 22 23 24 25 27 28 29 31 33 35 36 37 38 39 40 41
8 8 8 8 8 9 9 10 11 12 13 14 15 15 16 16 17 18 18 19 19 20 20 21 21 22 22 23 24 24 25 26 28 29 30 31 33 35 36 37 39 40 42
10 10 10 10 10 11 11 12 13 14 15 15 16 17 17 17 18 19 20 20 20 21 21 22 22 23 23 24 24 25 25 26 28 29 30 30 31 33 35 36 38 40 42
12 12 12 12 12 12 13 13 14 15 16 17 18 18 19 19 20 20 21 21 22 22 23 23 24 24 24 25 25 25 26 27 28 29 29 30 31 32 34 35 37 40 41
13 13 13 13 14 14 15 15 16 17 18 19 19 20 20 21 21 22 22 22 23 24 24 25 25 25 26 26 26 26 27 27 28 28 29 30 31 32 33 34 36 38 40
15 15 15 15 16 16 17 17 18 19 20 20 21 22 22 22 22 23 23 24 24 25 26 26 26 27 27 27 27 28 28 28 28 29 29 30 31 32 33 34 35 36 37
17 17 17 17 17 18 18 19 20 20 21 22 22 23 23 24 24 24 25 25 26 26 27 27 27 28 28 28 28 28 28 29 29 29 29 30 31 32 32 33 34 35 36
19 19 19 19 19 19 20 21 21 22 22 23 23 24 24 25 26 26 27 27 27 28 28 28 28 29 29 29 29 29 28 28 28 29 29 30 30 31 31 32 33 33 34
20 20 21 21 21 21 21 22 22 23 24 24 25 25 26 27 27 28 28 29 29 29 29 29 30 30 30 30 30 30 29 29 29 29 29 29 29 30 30 31 31 32 32
21 22 22 22 22 23 23 24 24 25 26 26 26 27 28 28 29 29 29 30 30 30 30 31 31 31 31 31 31 30 30 30 29 29 29 29 29 29 29 29 29 30 31
23 23 23 24 24 24 25 26 26 27 27 28 28 29 30 30 31 31 31 31 31 32 32 32 32 32 32 32 31 31 31 31 30 30 30 29 29 29 29 28 29 29 30
24 25 25 26 26 26 27 28 28 29 29 30 30 31 32 32 32 33 33 33 33 34 34 34 34 34 33 33 33 32 32 31 31 31 30 30 29 29 28 27 27 28 28
25 26 26 27 28 28 29 29 30 30 31 31 32 33 34 34 35 35 35 36 36 36 36 36 35 35 35 34 34 34 33 32 32 31 30 29 29 28 28 27 27 26 26
27 27 28 29 29 30 31 31 32 32 33 33 34 35 36 37 37 37 38 38 38 38 37 37 36 36 36 35 34 34 33 32 32 31 30 29 28 28 27 27 26 26 26
28 29 29 30 31 31 32 33 34 34 35 35 37 38 38 39 39 39 40 40 39 39 39 38 37 36 36 35 34 34 32 32 31 30 29 28 28 27 26 26 25 25 25
30 31 31 32 33 33 34 35 35 36 37 38 39 40 40 41 41 41 41 41 41 41 40 39 39 38 37 36 35 34 33 31 31 30 29 28 28 27 26 25 24 24 24
32 32 33 34 35 36 36 37 38 39 40 40 41 42 43 43 43 43 43 42 42 42 41 41 40 38 37 35 35 34 33 32 31 30 29 28 28 27 26 25 24 24 23
33 34 35 36 37 38 39 40 41 41 42 43 43 43 43 44 44 44 44 44 43 43 42 41 40 39 37 36 35 34 33 33 31 30 29 28 27 26 25 24 24 24 23
36 37 38 38 39 40 41 42 43 43 43 44 44 44 44 45 45 45 45 44 44 42 41 40 39 38 37 36 35 34 34 32 31 30 29 28 27 26 25 25 25 24 23
38 39 40 41 42 42 43 43 44 44 45 45 46 46 46 46 46 45 45 44 43 42 41 39 38 36 36 35 34 33 32 31 30 29 28 28 27 26 25 25 24 23 22
40 41 42 42 43 43 44 45 45 46 47 47 48 48 47 47 46 46 45 43 42 40 39 38 36 35 34 34 33 32 31 30 29 28 28 27 26 25 25 24 23 22 22
42 43 44 44 45 45 46 46 47 48 48 48 49 48 48 47 46 45 44 42 41 40 39 37 35 34 33 32 32 30 30 29 28 27 26 26 25 25 24 24 23 22 21
45 45 45 45 46 47 48 48 48 49 49 49 49 48 47 46 45 44 43 41 40 40 38 37 35 34 33 32 31 30 29 28 27 26 24 24 24 24 23 22 22 21 20
Wind_Direction
297 302 313 324 331 337 341 341 340 339 338 338 335 332 330 329 327 323 320 316 312 309 305 299 295 291 286 283 280 276 273 269 267 266 265 263 260 259 258 256 254 253 251
289 294 302 308 316 323 330 333 333 333 333 334 333 332 329 327 325 322 319 318 315 313 310 304 300 297 292 288 284 280 276 273 271 268 267 266 264 262 260 258 256 255 252
281 285 294 303 311 317 320 323 327 329 329 329 330 330 329 328 327 324 320 318 316 313 311 307 303 300 297 292 288 284 280 277 274 272 269 267 266 264 262 259 257 257 255
280 282 288 296 303 309 313 317 322 326 327 327 327 328 327 326 326 325 323 320 317 315 313 310 307 304 300 296 292 289 285 281 278 276 273 269 266 265 264 262 260 258 257
278 281 287 294 299 304 309 314 319 323 324 325 325 325 325 325 325 324 323 321 319 318 315 312 310 308 305 301 296 293 289 286 283 280 276 272 268 266 264 263 261 260 258
277 281 285 290 294 299 304 309 315 319 321 321 321 321 321 322 323 323 322 320 319 318 317 313 311 309 307 305 302 298 294 291 288 284 279 275 272 270 267 265 264 262 260
275 279 282 287 291 296 300 305 310 313 317 318 318 319 319 320 321 322 321 320 319 317 316 314 313 310 309 307 305 301 298 295 291 287 283 279 275 273 271 269 266 263 261
275 278 282 285 289 293 297 302 306 310 313 315 315 315 316 316 318 319 319 318 317 317 317 315 314 312 310 308 306 302 300 298 295 291 286 282 278 276 274 272 270 267 264
276 279 282 286 290 293 297 301 305 307 310 311 311 313 314 314 315 316 316 316 316 316 316 315 314 313 312 310 307 304 302 299 296 293 290 286 282 280 277 275 273 269 266
278 281 284 286 289 293 297 299 302 305 307 309 309 310 311 312 314 314 315 315 316 315 315 316 315 314 313 311 309 307 304 302 299 296 292 290 287 284 280 278 275 272 268
278 281 283 285 288 292 295 298 300 303 305 307 308 308 309 311 312 313 313 314 314 314 314 315 315 315 314 312 311 309 306 304 302 299 296 293 290 287 283 280 278 274 270
279 280 282 285 288 290 293 296 299 301 304 306 307 308 309 309 310 311 312 312 313 313 313 313 314 314 314 313 311 309 307 305 303 302 299 296 293 290 286 284 281 277 273
277 280 283 285 287 290 293 296 299 301 303 305 306 307 308 308 308 309 310 311 311 312 312 312 312 313 313 312 311 309 308 306 304 304 302 299 295 292 289 285 281 278 275
276 279 282 285 287 290 292 295 297 299 301 303 304 306 307 307 308 308 309 309 310 310 310 310 310 311 312 311 309 308 307 306 305 304 302 300 298 294 291 287 282 278 275
275 278 281 285 287 290 292 294 296 298 300 301 302 304 305 306 307 307 308 308 309 309 309 309 309 309 309 309 309 307 305 304 304 303 301 300 299 296 292 288 284 280 276
277 279 282 285 288 290 292 293 295 297 299 300 301 302 303 304 305 305 306 307 307 308 307 307 308 308 308 308 307 306 305 303 303 302 301 300 299 297 294 289 285 282 278
280 282 285 287 289 291 292 293 294 297 298 299 300 301 302 303 304 304 304 304 305 306 306 306 306 306 306 306 305 305 304 303 302 301 300 299 298 296 294 290 286 281 277
282 284 286 288 290 291 292 293 294 296 298 299 300 300 301 302 302 303 303 303 303 304 305 305 305 305 305 304 304 302 301 302 301 300 299 298 296 295 294 291 287 282 278
283 285 287 289 290 291 292 293 293 296 297 298 299 300 300 300 301 301 302 302 302 302 302 302 302 302 302 302 302 300 299 299 299 299 297 296 295 294 293 291 289 284 278
283 285 287 288 290 291 292 292 294 295 296 297 299 299 299 300 300 300 300 301 301 301 301 300 300 300 299 298 298 298 297 296 296 296 295 294 294 294 293 291 288 285 281
284 285 287 288 290 291 292 293 294 295 296 297 297 298 299 300 299 299 299 299 299 299 299 299 299 298 297 295 295 296 295 294 293 292 293 293 292 292 291 289 288 285 281
283 285 287 289 290 291 293 294 294 295 296 297 297 298 299 299 299 299 299 299 298 298 297 297 297 296 294 293 292 292 293 292 291 289 290 291 290 289 287 286 285 283 281
285 286 287 289 290 291 292 293 295 295 296 297 297 298 299 300 299 299 299 298 297 297 296 296 295 294 293 292 292 291 291 290 289 287 287 287 287 288 286 284 282 281 279
286 286 287 289 290 291 292 293 294 294 295 296 297 298 299 299 298 298 297 296 296 295 295 294 294 294 291 290 291 290 289 289 288 286 284 284 284 285 284 283 281 278 277
286 287 288 289 290 291 292 293 293 294 294 295 296 296 296 297 297 297 296 295 294 293 292 292 292 292 290 288 288 287 288 288 287 286 284 281 281 283 282 280 278 275 273
288 289 289 289 290 290 291 292 293 294 294 294 294 294 295 295 295 295 295 293 292 292 291 290 289 288 287 286 285 285 286 286 286 286 284 281 280 280 279 277 274 271 270